Martin, Slovakia

4:23 AM CEST on October 18, 2017 (GMT +0200)
Martin

Weather History for 11841 - January, 2013

Change the Weather History Date:

Thursday, January 10, 2013

  Actual Average Record
Temperature  
Mean Temperature 28 °F -  
Max Temperature 29 °F - - ()
Min Temperature 27 °F - - ()
Degree Days  
Heating Degree Days 37    
Moisture  
Dew Point 29 °F    
Average Humidity 99    
Maximum Humidity 100    
Minimum Humidity 97    
Precipitation  
Precipitation 0.02 in - - ()
Sea Level Pressure  
Sea Level Pressure 29.87 in    
Wind  
Wind Speed 6 mph ()    
Max Wind Speed 9 mph    
Max Gust Speed -    
Visibility 2.7 miles    
Events Rain , Snow    
T = Trace of Precipitation, MM = Missing Value Source: Averaged Metar Reports

Daily Weather History Graph

Daily Weather History Graph

Search for Another Location

Airport or City:

Trip Planner

Search our weather history database for the weather conditions in past years. The results will help you decide how hot, cold, wet, or windy it might be!

Date:

Astronomy

Jan. 10, 2013 Rise Set
Actual Time 7:38 AM CET 4:08 PM CET
Civil Twilight 7:01 AM CET 4:45 PM CET
Nautical Twilight 6:21 AM CET 5:25 PM CET
Astronomical Twilight 5:43 AM CET 6:03 PM CET
Moon 6:00 AM CET (1/10) 2:56 PM CET (1/10)
Length of Visible Light 9h 43m
Length of Day
8h 30m
Waning Crescent, 3% of the Moon is Illuminated
Jan 10
Waning Crescent
Jan 11
New
Jan 19
First Quarter
Jan 27
Full
Feb 3
Last Quarter

Hourly Weather History & Observations

Time (CET) Temp. Dew Point Humidity Pressure Visibility Wind Dir Wind Speed Gust Speed Precip Events Conditions
12:00 AM 30 °F 30 °F 99% 30.01 in 1 mi WSW 8.9 mph - - Snow Light Snow
1:00 AM 29 °F 29 °F 100% 29.99 in 1 mi West 6.7 mph - - Rain Light Freezing Drizzle
2:00 AM 29 °F 29 °F 100% 29.98 in 2 mi West 4.5 mph - - Rain Light Freezing Drizzle
3:00 AM 29 °F 29 °F 100% 29.95 in 3 mi West 8.9 mph - -   Mist
4:00 AM 30 °F 30 °F 98% 29.93 in 3 mi WSW 8.9 mph - - Rain Light Freezing Drizzle
5:00 AM 30 °F 30 °F 98% 29.91 in 2 mi West 6.7 mph - - Rain Light Freezing Drizzle
6:00 AM 28 °F 28 °F 100% 29.91 in 1 mi WSW 8.9 mph - - Snow Snow
7:00 AM 28 °F 28 °F 100% 29.91 in 1 mi WSW 8.9 mph - - Snow Light Snow
8:00 AM 28 °F 28 °F 98% 29.91 in 1 mi WSW 6.7 mph - - Snow Light Snow
9:00 AM 28 °F 28 °F 99% 29.91 in 3 mi WSW 4.5 mph - - Snow Light Snow
10:00 AM 28 °F 28 °F 97% 29.91 in 4 mi West 6.7 mph - - Snow Light Snow
11:00 AM 28 °F 28 °F 100% 29.90 in 2 mi West 4.5 mph - - Snow Light Snow
12:00 PM 29 °F 29 °F 99% 29.87 in 5 mi West 6.7 mph - - Snow Light Snow
1:00 PM 29 °F 29 °F 99% 29.84 in 5 mi West 4.5 mph - - Snow Light Snow
2:00 PM 28 °F 28 °F 100% 29.83 in 6 mi West 6.7 mph - -   Mist
3:00 PM 28 °F 28 °F 100% 29.83 in 4 mi West 6.7 mph - -   Mist
4:00 PM 28 °F 28 °F 99% 29.82 in 2 mi West 2.2 mph - - Snow Light Snow
5:00 PM 28 °F 28 °F 100% 29.81 in 2 mi West 4.5 mph - - Snow Light Snow
6:00 PM 28 °F 28 °F 100% 29.80 in 3 mi 2.2 mph - - Snow Light Snow
7:00 PM 29 °F 29 °F 99% 29.79 in 3 mi West 8.9 mph - -   Mist
8:00 PM 29 °F 29 °F 100% 29.78 in 3 mi West 8.9 mph - -   Mist
9:00 PM 29 °F 29 °F 100% 29.77 in 3 mi WNW 8.9 mph - -   Mist
10:00 PM 29 °F 29 °F 100% 29.77 in 3 mi West 6.7 mph - -   Mist
11:00 PM 29 °F 29 °F 100% 29.76 in 3 mi West 8.9 mph - -   Mist